Notices

What's New in latest Release from April 7th, 2021:

- Updated Glossary, including Speed of Maximum Gust, and Total Hourly Precipitation

- Updated national and regional climate services offices contacts and prices information

- Addition of station inventory lists for 1981-2010, 1971-2000, and 1961-1990 Normals.

If you haven't already, please take our survey and provide feedback about our website: https://eccc.sondage-survey.ca/f/LanguageSelection.aspx?s=442ca660-fcf1-47c0-95a9-59707d6fd709

Hourly Data Report for September 16, 2018

TORONTO CITY
ONTARIO
Current Station Operator: ECCC - MSC

43°40'00.000" N
79°24'00.000" W
112.50 m
6158355
71508
XTO

Download Data

Hourly Data (September 2018)
Hourly Data Report for September 16, 2018
TIME
LST
Temp Definition
°C
Dew Point Definition
°C
Rel Hum Definition
%
Precip. Amount Definition
mm

Wind Dir Definition
10's deg

Wind Spd Definition
km/h
Visibility Definition
km
Stn Press Definition
kPa
Hmdx Definition


Wind Chill Definition


Weather Definition


00:00 22.4 18.8 80 0.0 LegendMM LegendMM   100.85 29   LegendNANA
01:00 23.5 18.9 75 0.0 LegendMM LegendMM   100.84 30   LegendNANA
02:00 23.3 18.4 74 0.0 LegendMM LegendMM   100.84 30   LegendNANA
03:00 22.4 18.1 77 0.0 LegendMM LegendMM   100.83 28   LegendNANA
04:00 22.2 18.3 79 0.0 LegendMM LegendMM   100.85 28   LegendNANA
05:00 22.4 18.0 76 0.0 LegendMM LegendMM   100.87 28   LegendNANA
06:00 20.8 18.0 84 0.0 LegendMM LegendMM   100.90 27   LegendNANA
07:00 21.4 18.7 85 0.0 LegendMM LegendMM   100.93 28   LegendNANA
08:00 23.5 18.9 76 0.0 LegendMM LegendMM   100.94 30   LegendNANA
09:00 24.8 19.1 71 0.0 LegendMM LegendMM   100.95 32   LegendNANA
10:00 26.1 19.6 68 0.0 LegendMM LegendMM   100.97 33   LegendNANA
11:00 26.7 18.3 60 0.0 LegendMM LegendMM   100.94 33   LegendNANA
12:00 27.2 18.3 58 0.0 LegendMM LegendMM   100.91 33   LegendNANA
13:00 27.6 17.4 54 0.0 LegendMM LegendMM   100.86 33   LegendNANA
14:00 27.4 17.4 54 0.0 LegendMM LegendMM   100.78 33   LegendNANA
15:00 27.8 15.8 48 0.0 LegendMM LegendMM   100.69 32   LegendNANA
16:00 26.1 17.4 59 0.0 LegendMM LegendMM   100.65 32   LegendNANA
17:00 24.9 17.5 64 0.0 LegendMM LegendMM   100.63 31   LegendNANA
18:00 24.1 18.5 71 0.0 LegendMM LegendMM   100.64 30   LegendNANA
19:00 23.7 18.6 73 0.0 LegendMM LegendMM   100.60 30   LegendNANA
20:00 23.8 18.8 74 0.0 LegendMM LegendMM   100.62 30   LegendNANA
21:00 23.4 18.3 73 0.0 LegendMM LegendMM   100.60 30   LegendNANA
22:00 23.9 18.9 74 0.0 LegendMM LegendMM   100.58 31   LegendNANA
23:00 23.1 19.0 78 0.0 LegendMM LegendMM   100.54 30   LegendNANA

Notes on Data Quality.

Legend

  • E = Estimated
  • M = Missing
  • NA = Not Available*
  • [empty] = Indicates an unobserved value
Date modified: